NOZ813 ESSA-EGFF

Flight info

Callsign NOZ813
Flight time 2h 28m
Altitude 36000
Route PETEV N872 ELPAX DCT TOKSI DCT ERNOV DCT ALS DCT WANZA DCT EEL DCT SILQI DCT PAM L980 IDRID DCT ABNED DCT XAMAN DCT LAM L179 ICTAM
Aircraft B738/M-SDE2E3FGHIRWXY/LB1

Departure

Time 2026-05-05 12:38
Airport Stockholm-Arlanda Airport (ESSA)

Arrival

Time 2026-05-05 15:06
Airport Cardiff International Airport (EGFF)
Time Latitude Longitude Altitude Speed Heading
2026-05-05 12:09 59.64310 17.92940 136 ft 0 kts 30°
2026-05-05 12:23 59.64298 17.92927 137 ft 2 kts 30°
2026-05-05 12:23 59.64286 17.92914 136 ft 0 kts 30°
2026-05-05 12:24 59.64273 17.92902 137 ft 2 kts 20°
2026-05-05 12:24 59.64258 17.92891 137 ft 2 kts 16°
2026-05-05 12:25 59.64242 17.92884 137 ft 2 kts 12°
2026-05-05 12:25 59.64231 17.92879 137 ft 2 kts
2026-05-05 12:25 59.64210 17.92875 137 ft 2 kts 358°
2026-05-05 12:25 59.64195 17.92879 137 ft 1 kts 330°
2026-05-05 12:26 59.64192 17.92882 136 ft 0 kts 314°
2026-05-05 12:31 59.64193 17.92881 136 ft 1 kts 312°
2026-05-05 12:31 59.64198 17.92856 109 ft 7 kts 297°
2026-05-05 12:31 59.64232 17.92716 136 ft 12 kts 295°
2026-05-05 12:32 59.64264 17.92567 136 ft 12 kts 276°
2026-05-05 12:32 59.64229 17.92429 136 ft 11 kts 253°
2026-05-05 12:32 59.64254 17.92286 136 ft 11 kts 298°
2026-05-05 12:32 59.64290 17.92153 137 ft 11 kts 298°
2026-05-05 12:33 59.64325 17.92025 137 ft 10 kts 298°
2026-05-05 12:33 59.64375 17.91928 137 ft 12 kts 344°
2026-05-05 12:33 59.64487 17.91960 137 ft 20 kts 10°
2026-05-05 12:33 59.64623 17.92007 137 ft 19 kts 10°
2026-05-05 12:34 59.64754 17.92057 137 ft 19 kts 11°
2026-05-05 12:34 59.64881 17.92103 137 ft 18 kts
2026-05-05 12:34 59.65004 17.92146 137 ft 18 kts 11°
2026-05-05 12:34 59.65122 17.92191 137 ft 17 kts 11°
2026-05-05 12:35 59.65236 17.92231 137 ft 16 kts
2026-05-05 12:35 59.65376 17.92282 137 ft 27 kts 10°
2026-05-05 12:35 59.65559 17.92347 137 ft 26 kts 10°
2026-05-05 12:35 59.65706 17.92399 137 ft 17 kts 10°
2026-05-05 12:36 59.65821 17.92439 137 ft 16 kts 10°
2026-05-05 12:36 59.65906 17.92408 137 ft 13 kts 302°
2026-05-05 12:36 59.65918 17.92302 139 ft 6 kts 281°
2026-05-05 12:36 59.65927 17.92189 144 ft 9 kts 272°
2026-05-05 12:37 59.65871 17.92099 144 ft 13 kts 191°
2026-05-05 12:37 59.65645 17.92015 143 ft 66 kts 190°
2026-05-05 12:37 59.64961 17.91767 142 ft 131 kts 190°
2026-05-05 12:37 59.63909 17.91366 335 ft 165 kts 195°
2026-05-05 12:38 59.62770 17.90975 1093 ft 168 kts 197°
2026-05-05 12:38 59.61650 17.90300 1855 ft 165 kts 220°
2026-05-05 12:38 59.60898 17.88457 2241 ft 187 kts 241°
2026-05-05 12:38 59.60159 17.86160 2506 ft 209 kts 240°
2026-05-05 12:39 59.59360 17.83733 3031 ft 212 kts 239°
2026-05-05 12:39 59.58546 17.81250 3603 ft 221 kts 243°
2026-05-05 12:39 59.57796 17.78414 3893 ft 243 kts 246°
2026-05-05 12:39 59.57042 17.75402 4765 ft 244 kts 246°
2026-05-05 12:40 59.56139 17.72507 5467 ft 254 kts 231°
2026-05-05 12:40 59.54960 17.70149 6241 ft 257 kts 227°
2026-05-05 12:40 59.53697 17.67648 7041 ft 258 kts 228°
2026-05-05 12:40 59.52438 17.65111 7810 ft 260 kts 229°
2026-05-05 12:41 59.51173 17.62554 8627 ft 261 kts 229°
2026-05-05 12:41 59.49902 17.59977 9405 ft 263 kts 229°
2026-05-05 12:41 59.48624 17.57385 10127 ft 266 kts 229°
2026-05-05 12:41 59.47286 17.54661 10344 ft 288 kts 229°
2026-05-05 12:42 59.45846 17.51726 10522 ft 308 kts 229°
2026-05-05 12:42 59.44315 17.48613 10843 ft 322 kts 229°
2026-05-05 12:42 59.42744 17.45432 11506 ft 325 kts 229°
2026-05-05 12:42 59.41174 17.42263 12362 ft 322 kts 230°
2026-05-05 12:43 59.39614 17.39117 13251 ft 320 kts 231°
2026-05-05 12:43 59.38062 17.35987 14045 ft 320 kts 231°
2026-05-05 12:43 59.36506 17.32849 14771 ft 321 kts 231°
2026-05-05 12:43 59.34947 17.29709 15497 ft 322 kts 231°
2026-05-05 12:44 59.33384 17.26564 16232 ft 323 kts 231°
2026-05-05 12:44 59.31815 17.23413 16927 ft 323 kts 231°
2026-05-05 12:44 59.30228 17.20225 17451 ft 330 kts 231°
2026-05-05 12:44 59.28617 17.16994 18099 ft 332 kts 231°
2026-05-05 12:45 59.27015 17.13791 18696 ft 334 kts 231°
2026-05-05 12:45 59.25384 17.10530 19248 ft 337 kts 231°
2026-05-05 12:45 59.23737 17.07245 19762 ft 340 kts 231°
2026-05-05 12:45 59.22051 17.03887 20313 ft 343 kts 230°
2026-05-05 12:46 59.20385 17.00617 20828 ft 346 kts 228°
2026-05-05 12:46 59.18727 16.97742 21312 ft 351 kts 226°
2026-05-05 12:46 59.16870 16.94729 21809 ft 354 kts 225°
2026-05-05 12:46 59.14952 16.91675 22306 ft 357 kts 225°
2026-05-05 12:47 59.13024 16.88604 22792 ft 360 kts 225°
2026-05-05 12:47 59.11083 16.85497 23260 ft 362 kts 225°
2026-05-05 12:47 59.09134 16.82364 23724 ft 365 kts 225°
2026-05-05 12:47 59.07176 16.79209 24058 ft 367 kts 225°
2026-05-05 12:48 59.05200 16.76017 24396 ft 371 kts 225°
2026-05-05 12:48 59.03214 16.72812 24800 ft 372 kts 225°
2026-05-05 12:48 59.01213 16.69588 25209 ft 374 kts 225°
2026-05-05 12:48 58.99209 16.66362 25586 ft 375 kts 225°
2026-05-05 12:49 58.97193 16.63122 25956 ft 377 kts 225°
2026-05-05 12:49 58.95167 16.59869 26311 ft 380 kts 225°
2026-05-05 12:49 58.93125 16.56597 26673 ft 381 kts 225°
2026-05-05 12:49 58.91074 16.53318 27006 ft 383 kts 225°
2026-05-05 12:50 58.89010 16.50033 27344 ft 385 kts 224°
2026-05-05 12:50 58.86930 16.46742 27677 ft 387 kts 224°
2026-05-05 12:50 58.84838 16.43443 27995 ft 389 kts 224°
2026-05-05 12:50 58.82733 16.40127 28157 ft 393 kts 224°
2026-05-05 12:51 58.80598 16.36765 28337 ft 398 kts 224°
2026-05-05 12:51 58.78451 16.33390 28688 ft 398 kts 224°
2026-05-05 12:51 58.76336 16.30071 29143 ft 396 kts 224°
2026-05-05 12:51 58.74203 16.26733 29678 ft 393 kts 224°
2026-05-05 12:52 58.72089 16.23425 30100 ft 391 kts 224°
2026-05-05 12:52 58.69978 16.20116 30410 ft 391 kts 224°
2026-05-05 12:52 58.67867 16.16807 30688 ft 392 kts 224°
2026-05-05 12:52 58.65752 16.13497 31006 ft 392 kts 224°
2026-05-05 12:53 58.63643 16.10200 31366 ft 390 kts 224°
2026-05-05 12:53 58.61542 16.06922 31711 ft 389 kts 224°
2026-05-05 12:53 58.59440 16.03648 31967 ft 389 kts 224°
2026-05-05 12:53 58.57331 16.00364 32148 ft 392 kts 224°
2026-05-05 12:54 58.53185 15.93932 32795 ft 390 kts 224°
2026-05-05 12:54 58.51081 15.90678 33177 ft 388 kts 224°
2026-05-05 12:54 58.48980 15.87430 33458 ft 388 kts 224°
2026-05-05 12:55 58.46876 15.84182 33724 ft 388 kts 224°
2026-05-05 12:55 58.44775 15.80941 34006 ft 388 kts 224°
2026-05-05 12:55 58.42677 15.77712 34202 ft 389 kts 224°
2026-05-05 12:55 58.40564 15.74469 34366 ft 390 kts 224°
2026-05-05 12:56 58.38446 15.71217 34532 ft 392 kts 224°
2026-05-05 12:56 58.36320 15.67952 34704 ft 393 kts 224°
2026-05-05 12:56 58.34187 15.64678 34786 ft 396 kts 224°
2026-05-05 12:56 58.32063 15.61422 34911 ft 398 kts 224°
2026-05-05 12:57 58.29875 15.58072 35047 ft 400 kts 224°
2026-05-05 12:57 58.27731 15.54797 35217 ft 401 kts 224°
2026-05-05 12:57 58.25559 15.51486 35432 ft 401 kts 224°
2026-05-05 12:57 58.23380 15.48169 35608 ft 401 kts 223°
2026-05-05 12:58 58.21202 15.44856 35769 ft 402 kts 223°
2026-05-05 12:58 58.19009 15.41527 35878 ft 404 kts 223°
2026-05-05 12:58 58.16807 15.38188 35889 ft 407 kts 223°
2026-05-05 12:59 58.12363 15.31468 35898 ft 409 kts 223°
2026-05-05 12:59 58.07921 15.24784 35888 ft 407 kts 223°
2026-05-05 13:00 58.01250 15.14836 35897 ft 407 kts 223°
2026-05-05 13:01 57.92455 15.01784 35893 ft 407 kts 223°
2026-05-05 13:01 57.88094 14.95339 35895 ft 407 kts 223°
2026-05-05 13:02 57.83635 14.88771 35903 ft 407 kts 223°
2026-05-05 13:02 57.79204 14.82265 35895 ft 408 kts 223°
2026-05-05 13:03 57.74703 14.75677 35898 ft 408 kts 223°
2026-05-05 13:03 57.70250 14.69182 35887 ft 408 kts 222°
2026-05-05 13:04 57.65770 14.62667 35901 ft 408 kts 222°
2026-05-05 13:04 57.61278 14.56156 35892 ft 408 kts 222°
2026-05-05 13:05 57.56784 14.49664 35897 ft 409 kts 222°
2026-05-05 13:05 57.52287 14.43186 35893 ft 409 kts 222°
2026-05-05 13:06 57.47772 14.36704 35894 ft 410 kts 222°
2026-05-05 13:06 57.43248 14.30230 35891 ft 411 kts 222°
2026-05-05 13:07 57.38714 14.23762 35847 ft 411 kts 222°
2026-05-05 13:07 57.34179 14.17314 35876 ft 411 kts 221°
2026-05-05 13:08 57.29640 14.10880 35888 ft 411 kts 221°
2026-05-05 13:08 57.25091 14.04453 35903 ft 412 kts 221°
2026-05-05 13:09 57.20641 13.98181 35911 ft 412 kts 221°
2026-05-05 13:09 57.16076 13.91771 35903 ft 412 kts 221°
2026-05-05 13:10 57.11510 13.85387 35907 ft 412 kts 221°
2026-05-05 13:10 57.07704 13.80083 35914 ft 413 kts 221°
2026-05-05 13:11 57.03113 13.73699 35921 ft 414 kts 221°
2026-05-05 13:11 56.98522 13.67334 35918 ft 415 kts 221°
2026-05-05 13:12 56.93903 13.60950 35936 ft 416 kts 221°
2026-05-05 13:12 56.89271 13.54568 35908 ft 416 kts 221°
2026-05-05 13:13 56.84638 13.48205 35917 ft 417 kts 221°
2026-05-05 13:13 56.79999 13.41854 35935 ft 417 kts 221°
2026-05-05 13:14 56.75348 13.35506 35936 ft 418 kts 221°
2026-05-05 13:14 56.70689 13.29167 35937 ft 418 kts 220°
2026-05-05 13:15 56.66022 13.22840 35924 ft 418 kts 220°
2026-05-05 13:15 56.61354 13.16528 35941 ft 419 kts 220°
2026-05-05 13:16 56.56676 13.10224 35943 ft 419 kts 220°
2026-05-05 13:16 56.51987 13.03925 35951 ft 420 kts 220°
2026-05-05 13:17 56.47389 12.97767 35948 ft 420 kts 220°
2026-05-05 13:17 56.42714 12.91526 35910 ft 420 kts 220°
2026-05-05 13:18 56.37978 12.85222 35928 ft 421 kts 220°
2026-05-05 13:18 56.33295 12.79009 35934 ft 421 kts 220°
2026-05-05 13:19 56.28566 12.72753 35946 ft 422 kts 220°
2026-05-05 13:19 56.23894 12.66590 35985 ft 422 kts 220°
2026-05-05 13:20 56.19149 12.60352 35936 ft 423 kts 219°
2026-05-05 13:20 56.14871 12.53268 35966 ft 417 kts 233°
2026-05-05 13:21 56.11186 12.45227 35971 ft 417 kts 233°
2026-05-05 13:21 56.07474 12.37214 35966 ft 418 kts 232°
2026-05-05 13:22 56.03741 12.29229 35963 ft 419 kts 232°
2026-05-05 13:22 56.00014 12.21301 35964 ft 419 kts 232°
2026-05-05 13:23 55.96262 12.13347 35941 ft 420 kts 232°
2026-05-05 13:23 55.92497 12.05393 35957 ft 420 kts 232°
2026-05-05 13:24 55.88802 11.97612 35964 ft 421 kts 232°
2026-05-05 13:24 55.85007 11.89646 35973 ft 422 kts 232°
2026-05-05 13:25 55.81205 11.81690 35953 ft 422 kts 232°
2026-05-05 13:25 55.77393 11.73742 35957 ft 423 kts 232°
2026-05-05 13:26 55.73573 11.65803 35931 ft 423 kts 231°
2026-05-05 13:26 55.69751 11.57884 35950 ft 423 kts 231°
2026-05-05 13:27 55.65921 11.49977 35962 ft 423 kts 231°
2026-05-05 13:27 55.62080 11.42073 35962 ft 424 kts 231°
2026-05-05 13:28 55.58228 11.34172 35961 ft 424 kts 231°
2026-05-05 13:28 55.54369 11.26280 35957 ft 425 kts 231°
2026-05-05 13:29 55.50498 11.18391 35967 ft 425 kts 231°
2026-05-05 13:29 55.46625 11.10526 35960 ft 425 kts 231°
2026-05-05 13:30 55.42774 11.02730 35961 ft 424 kts 231°
2026-05-05 13:30 55.38978 10.95068 35960 ft 424 kts 231°
2026-05-05 13:31 55.35107 10.87280 35958 ft 423 kts 231°
2026-05-05 13:31 55.31233 10.79512 35961 ft 422 kts 231°
2026-05-05 13:32 55.27360 10.71771 35955 ft 422 kts 230°
2026-05-05 13:32 55.23484 10.64049 35960 ft 422 kts 230°
2026-05-05 13:33 55.19593 10.56321 35956 ft 423 kts 230°
2026-05-05 13:33 55.15688 10.48588 35957 ft 425 kts 230°
2026-05-05 13:34 55.11761 10.40840 35956 ft 426 kts 230°
2026-05-05 13:34 55.07822 10.33091 35935 ft 427 kts 230°
2026-05-05 13:35 55.03869 10.25340 35953 ft 428 kts 230°
2026-05-05 13:35 54.99909 10.17601 35961 ft 429 kts 230°
2026-05-05 13:36 54.95936 10.09857 35960 ft 429 kts 230°
2026-05-05 13:36 54.91952 10.02118 35964 ft 429 kts 230°
2026-05-05 13:37 54.88293 9.94319 35976 ft 428 kts 235°
2026-05-05 13:37 54.84847 9.85895 35949 ft 428 kts 236°
2026-05-05 13:38 54.81412 9.77471 35945 ft 428 kts 236°
2026-05-05 13:38 54.77946 9.69095 35950 ft 428 kts 235°
2026-05-05 13:39 54.74458 9.60750 35947 ft 428 kts 235°
2026-05-05 13:39 54.70963 9.52428 35944 ft 428 kts 235°
2026-05-05 13:40 54.67461 9.44117 35941 ft 428 kts 235°
2026-05-05 13:40 54.63952 9.35817 35924 ft 428 kts 235°
2026-05-05 13:41 54.60438 9.27530 35940 ft 427 kts 235°
2026-05-05 13:41 54.56924 9.19272 35946 ft 427 kts 234°
2026-05-05 13:42 54.53405 9.11030 35944 ft 427 kts 234°
2026-05-05 13:42 54.49881 9.02801 35942 ft 427 kts 234°
2026-05-05 13:43 54.46499 8.94931 35938 ft 427 kts 234°
2026-05-05 13:43 54.42961 8.86725 35940 ft 427 kts 234°
2026-05-05 13:44 54.39418 8.78533 35942 ft 427 kts 234°
2026-05-05 13:44 54.35877 8.70372 35942 ft 426 kts 234°
2026-05-05 13:45 54.32339 8.62245 35942 ft 425 kts 234°
2026-05-05 13:45 54.28802 8.54146 35942 ft 424 kts 234°
2026-05-05 13:46 54.25262 8.46060 35949 ft 424 kts 234°
2026-05-05 13:46 54.21623 8.38136 35943 ft 425 kts 227°
2026-05-05 13:47 54.17434 8.31028 35945 ft 424 kts 226°
2026-05-05 13:47 54.13186 8.24030 35950 ft 424 kts 226°
2026-05-05 13:48 54.08997 8.17077 35954 ft 423 kts 226°
2026-05-05 13:48 54.04799 8.10068 35948 ft 422 kts 226°
2026-05-05 13:49 54.00608 8.03071 35948 ft 422 kts 226°
2026-05-05 13:49 53.96518 7.96258 35947 ft 421 kts 226°
2026-05-05 13:50 53.92342 7.89325 35947 ft 420 kts 226°
2026-05-05 13:50 53.88161 7.82404 35948 ft 419 kts 226°
2026-05-05 13:51 53.83988 7.75519 35951 ft 419 kts 226°
2026-05-05 13:51 53.79817 7.68656 35946 ft 418 kts 226°
2026-05-05 13:52 53.75638 7.61800 35947 ft 418 kts 226°
2026-05-05 13:52 53.71488 7.55010 35936 ft 418 kts 225°
2026-05-05 13:53 53.67315 7.48204 35949 ft 417 kts 225°
2026-05-05 13:53 53.63127 7.41394 35951 ft 416 kts 225°
2026-05-05 13:54 53.58963 7.34641 35941 ft 415 kts 225°
2026-05-05 13:54 53.54806 7.27919 35942 ft 414 kts 225°
2026-05-05 13:55 53.50675 7.21258 35935 ft 414 kts 224°
2026-05-05 13:55 53.46519 7.14575 35943 ft 414 kts 224°
2026-05-05 13:56 53.42360 7.07908 35941 ft 413 kts 224°
2026-05-05 13:56 53.38198 7.01253 35939 ft 413 kts 224°
2026-05-05 13:57 53.34126 6.94762 35941 ft 414 kts 224°
2026-05-05 13:57 53.29957 6.88134 35942 ft 414 kts 224°
2026-05-05 13:58 53.25783 6.81515 35941 ft 414 kts 224°
2026-05-05 13:58 53.22309 6.76019 35940 ft 414 kts 224°
2026-05-05 13:59 53.16046 6.66087 35938 ft 414 kts 227°
2026-05-05 14:00 53.10420 6.55175 35944 ft 416 kts 230°
2026-05-05 14:00 53.06693 6.47791 35925 ft 417 kts 230°
2026-05-05 14:01 53.02932 6.40437 35934 ft 417 kts 229°
2026-05-05 14:01 52.99166 6.33131 35934 ft 418 kts 229°
2026-05-05 14:02 52.95377 6.25809 35929 ft 418 kts 229°
2026-05-05 14:02 52.91588 6.18508 35928 ft 418 kts 229°
2026-05-05 14:03 52.87820 6.11267 35923 ft 417 kts 229°
2026-05-05 14:03 52.84028 6.04001 35920 ft 417 kts 229°
2026-05-05 14:04 52.80315 5.96906 35919 ft 417 kts 229°
2026-05-05 14:04 52.76529 5.89689 35919 ft 417 kts 229°
2026-05-05 14:05 52.72723 5.82458 35921 ft 417 kts 229°
2026-05-05 14:05 52.68905 5.75238 35919 ft 418 kts 229°
2026-05-05 14:06 52.65083 5.68030 35917 ft 418 kts 229°
2026-05-05 14:06 52.61255 5.60828 35904 ft 418 kts 228°
2026-05-05 14:07 52.57426 5.53644 35915 ft 418 kts 228°
2026-05-05 14:07 52.53588 5.46463 35912 ft 419 kts 228°
2026-05-05 14:08 52.49759 5.39319 35915 ft 419 kts 228°
2026-05-05 14:08 52.45900 5.32139 35913 ft 420 kts 228°
2026-05-05 14:09 52.42025 5.24948 35915 ft 421 kts 228°
2026-05-05 14:09 52.38140 5.17758 35913 ft 422 kts 227°
2026-05-05 14:10 52.34401 5.10359 35910 ft 423 kts 236°
2026-05-05 14:10 52.31861 5.01687 35919 ft 426 kts 249°
2026-05-05 14:11 52.30057 4.92706 35921 ft 426 kts 250°
2026-05-05 14:11 52.28184 4.83503 35916 ft 427 kts 249°
2026-05-05 14:12 52.26272 4.74294 35914 ft 429 kts 249°
2026-05-05 14:12 52.24358 4.65140 35916 ft 430 kts 249°
2026-05-05 14:13 52.22420 4.55904 35919 ft 431 kts 249°
2026-05-05 14:13 52.20480 4.46663 35921 ft 431 kts 249°
2026-05-05 14:14 52.18531 4.37418 35913 ft 431 kts 249°
2026-05-05 14:14 52.16576 4.28183 35921 ft 431 kts 249°
2026-05-05 14:15 52.14616 4.18965 35921 ft 431 kts 248°
2026-05-05 14:15 52.12649 4.09758 35928 ft 430 kts 248°
2026-05-05 14:16 52.10678 4.00577 35924 ft 430 kts 248°
2026-05-05 14:16 52.08748 3.91616 35938 ft 429 kts 249°
2026-05-05 14:17 52.06764 3.82454 35933 ft 430 kts 249°
2026-05-05 14:17 52.04770 3.73271 35933 ft 431 kts 249°
2026-05-05 14:18 52.02767 3.64069 35938 ft 433 kts 248°
2026-05-05 14:18 52.00750 3.54839 35936 ft 435 kts 248°
2026-05-05 14:19 51.98129 3.46087 35927 ft 432 kts 232°
2026-05-05 14:19 51.94530 3.38295 35936 ft 432 kts 232°
2026-05-05 14:20 51.90931 3.30460 35947 ft 434 kts 232°
2026-05-05 14:20 51.87387 3.22612 35936 ft 436 kts 235°
2026-05-05 14:21 51.84883 3.13665 35935 ft 440 kts 252°
2026-05-05 14:21 51.83928 3.03866 35942 ft 443 kts 262°
2026-05-05 14:22 51.83359 2.94166 35935 ft 443 kts 262°
2026-05-05 14:22 51.82749 2.84269 35943 ft 443 kts 262°
2026-05-05 14:23 51.82099 2.74367 35932 ft 442 kts 262°
2026-05-05 14:23 51.81437 2.64557 35943 ft 441 kts 262°
2026-05-05 14:24 51.80759 2.54648 35936 ft 441 kts 262°
2026-05-05 14:24 51.80078 2.44812 35947 ft 440 kts 261°
2026-05-05 14:25 51.79396 2.35052 35951 ft 440 kts 262°
2026-05-05 14:25 51.78703 2.25240 35937 ft 440 kts 261°
2026-05-05 14:26 51.78050 2.15410 35942 ft 440 kts 263°
2026-05-05 14:26 51.77480 2.05552 35952 ft 441 kts 262°
2026-05-05 14:27 51.76919 1.95898 35949 ft 442 kts 263°
2026-05-05 14:27 51.76323 1.85981 35952 ft 444 kts 262°
2026-05-05 14:28 51.75710 1.76036 35958 ft 446 kts 262°
2026-05-05 14:28 51.75085 1.66052 35961 ft 448 kts 262°
2026-05-05 14:29 51.74449 1.56026 35956 ft 450 kts 262°
2026-05-05 14:29 51.73803 1.45973 35961 ft 451 kts 262°
2026-05-05 14:30 51.73149 1.35924 35957 ft 450 kts 262°
2026-05-05 14:30 51.72490 1.25954 35955 ft 449 kts 262°
2026-05-05 14:31 51.71822 1.15957 35962 ft 448 kts 262°
2026-05-05 14:31 51.71146 1.05981 35963 ft 447 kts 262°
2026-05-05 14:32 51.70481 0.96284 35966 ft 446 kts 262°
2026-05-05 14:32 51.69793 0.86374 35962 ft 444 kts 262°
2026-05-05 14:33 51.69098 0.76500 35962 ft 443 kts 262°
2026-05-05 14:33 51.68398 0.66665 35961 ft 441 kts 262°
2026-05-05 14:34 51.67691 0.56851 35963 ft 440 kts 262°
2026-05-05 14:34 51.66977 0.47057 35966 ft 439 kts 262°
2026-05-05 14:35 51.66256 0.37270 35959 ft 440 kts 262°
2026-05-05 14:35 51.65528 0.27500 35962 ft 441 kts 262°
2026-05-05 14:36 51.64789 0.17688 35960 ft 442 kts 261°
2026-05-05 14:36 51.63950 0.08372 35965 ft 442 kts 258°
2026-05-05 14:37 51.62916 -0.00680 36007 ft 443 kts 258°
2026-05-05 14:37 51.61838 -0.10470 36011 ft 445 kts 258°
2026-05-05 14:38 51.60912 -0.20328 35434 ft 453 kts 261°
2026-05-05 14:38 51.60514 -0.25369 35020 ft 446 kts 261°
2026-05-05 14:38 51.60131 -0.30308 34374 ft 444 kts 261°
2026-05-05 14:39 51.59744 -0.35204 33927 ft 439 kts 261°
2026-05-05 14:39 51.59353 -0.40045 33389 ft 435 kts 260°
2026-05-05 14:39 51.58957 -0.44834 32911 ft 430 kts 260°
2026-05-05 14:39 51.58558 -0.49570 32455 ft 425 kts 260°
2026-05-05 14:40 51.58161 -0.54245 32029 ft 420 kts 259°
2026-05-05 14:40 51.57766 -0.58872 31575 ft 416 kts 259°
2026-05-05 14:40 51.57374 -0.63425 31143 ft 412 kts 259°
2026-05-05 14:40 51.56982 -0.67961 30712 ft 408 kts 259°
2026-05-05 14:41 51.56592 -0.72465 30314 ft 405 kts 259°
2026-05-05 14:41 51.56204 -0.76918 29863 ft 402 kts 259°
2026-05-05 14:41 51.55817 -0.81343 29403 ft 398 kts 259°
2026-05-05 14:41 51.55432 -0.85719 28966 ft 393 kts 259°
2026-05-05 14:42 51.55051 -0.90040 28536 ft 389 kts 259°
2026-05-05 14:42 51.54672 -0.94319 28109 ft 385 kts 259°
2026-05-05 14:42 51.54299 -0.98502 27715 ft 381 kts 260°
2026-05-05 14:42 51.53959 -1.02314 27329 ft 378 kts 260°
2026-05-05 14:43 51.53587 -1.06476 26906 ft 375 kts 260°
2026-05-05 14:43 51.53216 -1.10597 26484 ft 372 kts 260°
2026-05-05 14:43 51.52850 -1.14692 26074 ft 369 kts 262°
2026-05-05 14:43 51.52885 -1.18788 25677 ft 369 kts 278°
2026-05-05 14:44 51.53373 -1.22808 25351 ft 367 kts 280°
2026-05-05 14:44 51.53889 -1.26858 24972 ft 373 kts 280°
2026-05-05 14:44 51.54406 -1.30966 24600 ft 377 kts 280°
2026-05-05 14:44 51.54912 -1.35085 24215 ft 375 kts 280°
2026-05-05 14:45 51.55405 -1.39190 23830 ft 373 kts 279°
2026-05-05 14:45 51.55888 -1.43268 23444 ft 370 kts 279°
2026-05-05 14:45 51.56363 -1.47321 23008 ft 368 kts 279°
2026-05-05 14:45 51.56831 -1.51338 22608 ft 365 kts 279°
2026-05-05 14:46 51.57294 -1.55327 22247 ft 361 kts 279°
2026-05-05 14:46 51.57753 -1.59288 21887 ft 359 kts 279°
2026-05-05 14:46 51.58206 -1.63215 21531 ft 356 kts 279°
2026-05-05 14:46 51.58633 -1.67134 21169 ft 354 kts 277°
2026-05-05 14:47 51.58944 -1.71045 20819 ft 352 kts 275°
2026-05-05 14:47 51.59210 -1.74957 20464 ft 350 kts 275°
2026-05-05 14:47 51.59466 -1.78788 20122 ft 349 kts 275°
2026-05-05 14:47 51.59730 -1.82663 19766 ft 348 kts 275°
2026-05-05 14:48 51.60000 -1.86522 19419 ft 347 kts 276°
2026-05-05 14:48 51.60275 -1.90381 19059 ft 347 kts 276°
2026-05-05 14:48 51.60551 -1.94238 18727 ft 347 kts 276°
2026-05-05 14:48 51.60826 -1.98096 18372 ft 347 kts 276°
2026-05-05 14:49 51.61069 -2.01799 18006 ft 346 kts 272°
2026-05-05 14:49 51.60733 -2.05609 17605 ft 345 kts 250°
2026-05-05 14:49 51.59599 -2.08975 17268 ft 344 kts 233°
2026-05-05 14:49 51.58125 -2.11993 16926 ft 342 kts 231°
2026-05-05 14:50 51.57131 -2.13948 16690 ft 341 kts 231°
2026-05-05 14:50 51.55622 -2.16894 16337 ft 340 kts 231°
2026-05-05 14:50 51.54126 -2.19826 15985 ft 339 kts 231°
2026-05-05 14:50 51.52639 -2.22763 15648 ft 338 kts 231°
2026-05-05 14:51 51.51161 -2.25699 15318 ft 338 kts 231°
2026-05-05 14:51 51.49688 -2.28633 14975 ft 337 kts 231°
2026-05-05 14:51 51.48219 -2.31563 14641 ft 337 kts 231°
2026-05-05 14:51 51.46748 -2.34496 14303 ft 337 kts 231°
2026-05-05 14:52 51.45281 -2.37422 13964 ft 337 kts 231°
2026-05-05 14:52 51.43810 -2.40349 13606 ft 337 kts 231°
2026-05-05 14:52 51.42344 -2.43260 13229 ft 333 kts 231°
2026-05-05 14:52 51.40984 -2.46235 12861 ft 329 kts 243°
2026-05-05 14:53 51.40320 -2.49685 12581 ft 322 kts 260°
2026-05-05 14:53 51.39968 -2.53211 12241 ft 320 kts 262°
2026-05-05 14:53 51.39644 -2.56723 11916 ft 318 kts 262°
2026-05-05 14:53 51.39312 -2.60223 11593 ft 317 kts 262°
2026-05-05 14:54 51.38967 -2.63704 11271 ft 316 kts 261°
2026-05-05 14:54 51.38616 -2.67157 10952 ft 313 kts 262°
2026-05-05 14:54 51.38265 -2.70583 10634 ft 310 kts 262°
2026-05-05 14:54 51.38056 -2.73991 10325 ft 306 kts 271°
2026-05-05 14:55 51.38107 -2.77379 10024 ft 302 kts 275°
2026-05-05 14:55 51.38217 -2.80687 9947 ft 291 kts 274°
2026-05-05 14:55 51.38322 -2.83865 9879 ft 280 kts 275°
2026-05-05 14:55 51.38417 -2.87011 9238 ft 290 kts 274°
2026-05-05 14:56 51.38505 -2.90245 8835 ft 291 kts 274°
2026-05-05 14:56 51.38582 -2.93467 8537 ft 288 kts 274°
2026-05-05 14:56 51.38652 -2.96661 8222 ft 286 kts 274°
2026-05-05 14:56 51.38718 -2.99817 7925 ft 280 kts 274°
2026-05-05 14:57 51.38776 -3.02731 7655 ft 270 kts 274°
2026-05-05 14:57 51.38833 -3.05687 7383 ft 261 kts 274°
2026-05-05 14:57 51.38889 -3.08570 7128 ft 259 kts 274°
2026-05-05 14:57 51.38943 -3.11447 6861 ft 258 kts 274°
2026-05-05 14:58 51.38998 -3.14311 6601 ft 256 kts 274°
2026-05-05 14:58 51.39050 -3.17154 6334 ft 256 kts 274°
2026-05-05 14:58 51.39100 -3.19998 6041 ft 255 kts 274°
2026-05-05 14:58 51.39149 -3.22806 5745 ft 248 kts 274°
2026-05-05 14:59 51.39109 -3.25527 5469 ft 243 kts 259°
2026-05-05 14:59 51.38237 -3.27758 5246 ft 239 kts 217°
2026-05-05 14:59 51.36695 -3.28521 5015 ft 235 kts 174°
2026-05-05 14:59 51.35254 -3.27472 4852 ft 229 kts 131°
2026-05-05 15:00 51.34255 -3.25509 4644 ft 229 kts 127°
2026-05-05 15:00 51.33576 -3.24211 4473 ft 230 kts 128°
2026-05-05 15:00 51.32161 -3.21645 4148 ft 230 kts 129°
2026-05-05 15:00 51.31089 -3.19764 3910 ft 227 kts 130°
2026-05-05 15:01 51.30036 -3.17938 3692 ft 219 kts 129°
2026-05-05 15:01 51.29342 -3.15916 3434 ft 201 kts 91°
2026-05-05 15:01 51.29647 -3.13948 3296 ft 172 kts 55°
2026-05-05 15:01 51.30444 -3.12740 3137 ft 151 kts 25°
2026-05-05 15:02 51.31422 -3.12386 2976 ft 143 kts 358°
2026-05-05 15:02 51.32375 -3.12823 2833 ft 145 kts 333°
2026-05-05 15:02 51.33103 -3.13919 2648 ft 148 kts 303°
2026-05-05 15:02 51.33608 -3.15322 2574 ft 145 kts 306°
2026-05-05 15:03 51.34102 -3.16688 2485 ft 144 kts 302°
2026-05-05 15:03 51.34569 -3.18116 2298 ft 142 kts 301°
2026-05-05 15:03 51.35011 -3.19514 2108 ft 140 kts 300°
2026-05-05 15:03 51.35442 -3.20889 1925 ft 141 kts 300°
2026-05-05 15:04 51.35883 -3.22294 1733 ft 141 kts 300°
2026-05-05 15:04 51.36320 -3.23691 1537 ft 139 kts 300°
2026-05-05 15:04 51.36753 -3.25071 1344 ft 138 kts 300°
2026-05-05 15:04 51.37183 -3.26440 1158 ft 136 kts 300°
2026-05-05 15:05 51.38032 -3.29144 781 ft 135 kts 295°
2026-05-05 15:05 51.38458 -3.30471 627 ft 136 kts 294°
2026-05-05 15:05 51.38882 -3.31845 411 ft 140 kts 293°
2026-05-05 15:06 51.39310 -3.33203 248 ft 136 kts 294°
2026-05-05 15:06 51.39654 -3.34320 221 ft 106 kts 297°
2026-05-05 15:06 51.39888 -3.35058 218 ft 49 kts 297°
2026-05-05 15:06 51.39991 -3.35377 216 ft 19 kts 297°
2026-05-05 15:07 51.40059 -3.35527 216 ft 15 kts 352°
2026-05-05 15:07 51.40142 -3.35443 216 ft 14 kts 55°
2026-05-05 15:07 51.40150 -3.35298 219 ft 14 kts 113°
2026-05-05 15:07 51.40110 -3.35166 217 ft 13 kts 116°
2026-05-05 15:08 51.40071 -3.35037 220 ft 13 kts 116°
2026-05-05 15:08 51.40030 -3.34910 221 ft 13 kts 117°
2026-05-05 15:08 51.39991 -3.34786 221 ft 12 kts 117°
2026-05-05 15:08 51.39952 -3.34666 221 ft 12 kts 117°
2026-05-05 15:09 51.39915 -3.34549 225 ft 12 kts 116°
2026-05-05 15:09 51.39879 -3.34433 224 ft 11 kts 116°
2026-05-05 15:09 51.39845 -3.34320 225 ft 11 kts 116°
2026-05-05 15:09 51.39810 -3.34211 224 ft 11 kts 116°
2026-05-05 15:10 51.39794 -3.34102 222 ft 12 kts 88°
2026-05-05 15:10 51.39801 -3.34005 220 ft 5 kts 83°
2026-05-05 15:10 51.39804 -3.33966 220 ft 0 kts 83°
2026-05-05 15:10 51.39806 -3.33942 220 ft 0 kts 83°
2026-05-05 15:11 51.39806 -3.33932 222 ft 0 kts 83°